Location: Newark
(53.7833°N, 9.4833°E)
Time: 04:37:39
(UTC+00:00)

Envisat - Pass Details

Date: 14 December 2019
Orbit: 764 x 766 km, 98.1° (Epoch: 21 January)

Event Time Altitude Azimuth Distance (km) Brightness Sun altitude
Rises 16:49:25 0° 158° (SSE) 3,224 6.2 -14.7°
Reaches altitude 10° 16:51:42 10° 157° (SSE) 2,302 5.4 -15.0°
Maximum altitude 16:56:46 77° 72° (ENE) 794 2.9 -15.7°
Drops below altitude 10° 17:01:53 10° 347° (NNW) 2,318 5.4 -16.4°
Sets 17:04:12 0° 346° (NNW) 3,249 6.2 -16.8°
